This is the latest recevied weather packets stored in our database for station/object KB1JLI. If no packets are shown the sender has not sent any weather packets the latest 10 day(s).
| Time | Temp. | Humidity | Pressure | Rain* | Wind** | Luminosity | Snow |
|---|---|---|---|---|---|---|---|
| 1777910146 | 20° C | 32% | 1007.9 hPa | 0 mm | - | 681 W/m² | - |
| 1777909844 | 20.56° C | 32% | 1007.7 hPa | 0 mm | - | 674 W/m² | - |
| 1777909540 | 20° C | 33% | 1007.8 hPa | 0 mm | - | 673 W/m² | - |
| 1777909237 | 20.56° C | 32% | 1008.1 hPa | 0 mm | - | 673 W/m² | - |
| 1777908936 | 20° C | 33% | 1007.9 hPa | 0 mm | - | 680 W/m² | - |
| 1777908633 | 18.89° C | 34% | 1008.3 hPa | 0 mm | - | 656 W/m² | - |
| 1777908330 | 19.44° C | 33% | 1008.3 hPa | 0 mm | - | 692 W/m² | - |
| 1777908026 | 19.44° C | 34% | 1008.5 hPa | 0 mm | - | 517 W/m² | - |
| 1777907722 | 19.44° C | 34% | 1008.6 hPa | 0 mm | - | 582 W/m² | - |
| 1777907416 | 19.44° C | 34% | 1008.6 hPa | 0 mm | - | 677 W/m² | - |
| 1777907114 | 19.44° C | 36% | 1008.8 hPa | 0 mm | - | 652 W/m² | - |
| 1777906812 | 19.44° C | 36% | 1008.7 hPa | 0 mm | - | 633 W/m² | - |
| 1777906509 | 18.33° C | 36% | 1008.7 hPa | 0 mm | - | 524 W/m² | - |
| 1777906204 | 19.44° C | 35% | 1008.9 hPa | 0 mm | - | 624 W/m² | - |
| 1777905901 | 19.44° C | 35% | 1009.1 hPa | 0 mm | - | 611 W/m² | - |
| 1777905598 | 18.89° C | 38% | 1008.8 hPa | 0 mm | - | 604 W/m² | - |
| 1777905295 | 18.89° C | 37% | 1009.2 hPa | 0 mm | - | 594 W/m² | - |
| 1777904992 | 17.78° C | 38% | 1008.9 hPa | 0 mm | - | 582 W/m² | - |
| 1777904690 | 18.33° C | 37% | 1009.1 hPa | 0 mm | - | 568 W/m² | - |
| 1777904386 | 18.33° C | 39% | 1009.2 hPa | 0 mm | - | 569 W/m² | - |
| 1777904083 | 17.78° C | 38% | 1009.2 hPa | 0 mm | - | 557 W/m² | - |
| 1777903780 | 17.78° C | 38% | 1009.3 hPa | 0 mm | - | 547 W/m² | - |
| 1777903476 | 17.78° C | 38% | 1009.2 hPa | 0 mm | - | 538 W/m² | - |
| 1777903173 | 17.78° C | 38% | 1009.4 hPa | 0 mm | - | 525 W/m² | - |
| 1777902869 | 16.67° C | 39% | 1009.5 hPa | 0 mm | - | 521 W/m² | - |
* Rain latest hour (hover to see other rain measurements)
** Current wind speed in m/s (hover to see current wind gust speed)